Content
SEND FEEDBACK

Daily
Averages
Monthly
Summary
United States of America

MANGILAO, GUAM


Home > North America > United States > Guam
Elevation: 60 feet     Latitude: 13 27N     Longitude: 144 49E

WEATHER
 
SELECT A DAY
Number of Records: 350,124;   Date Range: 1/1/95 - 9/28/14
 
SHARE

PRINT THIS DATA

[ ← Previous Day ]
WEATHER ALMANAC - OCTOBER 22, 2013
[ Next Day → ]
[ °C ]   °F
Weather ElementAverageHighLow
Temperature76 °F80.6 °F (10:55 am)69.8 °F (1:28 pm)
Dewpoint74.7 °F78.8 °F (12:29 am)68 °F (1:28 pm)
Humidity95.7 %100 % (12:29 am)83 % (10:50 am)
Barometer29.76 in29.81 in (12:19 am)29.71 in (2:58 am)
Wind Speed7.4 mph15 mph (12:28 pm)
Weather ElementAverage
Visibility9.1 mi
Wind DirectionWSW (234 °)

Weather ElementTotal
Precipitation0.15 in
Cooling Degree Days10.2 (Base 65)
Growing Degree Days25.2 (Base 50)
Averaged from 77 records on October 22, 2013
WEATHER CONDITIONS BREAKOUT
WIND DIRECTION BREAKOUT
WEATHER BY HOUR - OCTOBER 22, 2013
[ °C ]   °F
Local TimeTemperatureDewpointHumidityBarometerVisibilityWind DirectionWind SpeedGust SpeedPrecipitationEventsConditions
12:19 AM78.8 °F77.0 °F94 %29.81 in10.0 miSSW (200°)9.2 mphMostly Cloudy
12:24 AM78.8 °F77.0 °F94 %29.81 in10.0 miSSW (200°)9.2 mphMostly Cloudy
12:29 AM78.8 °F78.8 °F100 %29.80 in10.0 miSouth (190°)10.4 mphMostly Cloudy
12:39 AM78.8 °F77.0 °F94 %29.79 in10.0 miSouth (190°)9.2 mphMostly Cloudy
12:44 AM78.8 °F77.0 °F94 %29.79 in10.0 miSouth (180°)10.4 mphMostly Cloudy
12:49 AM78.8 °F78.8 °F100 %29.79 in10.0 miSouth (180°)11.5 mphMostly Cloudy
12:58 AM79.0 °F77.7 °F96 %29.75 in10.0 miSouth (180°)9.2 mph0.01 inMostly Cloudy
1:18 AM78.8 °F77.0 °F94 %29.78 in10.0 miSouth (190°)10.4 mphMostly Cloudy
1:38 AM78.8 °F77.0 °F94 %29.78 in10.0 miSouth (170°)9.2 mphMostly Cloudy
1:48 AM78.8 °F77.0 °F94 %29.77 in10.0 miSouth (190°)8.1 mphOvercast
1:58 AM78.4 °F77.0 °F95 %29.74 in10.0 miSouth (190°)8.1 mphOvercast
2:08 AM78.8 °F77.0 °F94 %29.77 in7.0 miSW (230°)11.5 mphMostly Cloudy
2:10 AM77.0 °F75.2 °F94 %29.77 in3.0 miSSW (200°)8.1 mphRainLight Rain
2:15 AM77.0 °F75.2 °F94 %29.77 in2.5 miSW (230°)9.2 mphRainLight Rain
2:20 AM77.0 °F75.2 °F94 %29.76 in4.0 miSW (230°)10.4 mphRainLight Rain
2:25 AM77.0 °F75.2 °F94 %29.76 in8.0 miSW (220°)9.2 mphRainLight Rain
2:52 AM77.0 °F77.0 °F100 %29.74 in10.0 miSouth (190°)8.1 mphPartly Cloudy
2:58 AM77.2 °F76.3 °F97 %29.71 in10.0 miSSW (200°)8.1 mph0.03 inClear
3:05 AM77.0 °F75.2 °F94 %29.74 in10.0 miSSW (200°)6.9 mphRainLight Rain
3:17 AM77.0 °F77.0 °F100 %29.74 in10.0 miSouth (190°)8.1 mphClear
3:58 AM76.1 °F75.2 °F97 %29.71 in10.0 miSouth (190°)6.9 mph0.00 inPartly Cloudy
4:13 AM75.2 °F75.2 °F100 %29.74 in10.0 miSW (230°)4.6 mphMostly Cloudy
4:17 AM75.2 °F75.2 °F100 %29.74 in4.0 miSW (220°)8.1 mphLight Drizzle
4:22 AM75.2 °F75.2 °F100 %29.74 in2.5 miSouth (190°)5.8 mphLight Drizzle
4:27 AM75.2 °F73.4 °F94 %29.74 in4.0 miSouth (180°)5.8 mphLight Drizzle
4:29 AM75.2 °F75.2 °F100 %29.74 in5.0 miSouth (170°)5.8 mphMostly Cloudy
4:34 AM73.4 °F73.4 °F100 %29.75 in9.0 miSouth (190°)4.6 mphMostly Cloudy
4:39 AM73.4 °F73.4 °F100 %29.75 in10.0 miSSW (200°)5.8 mphMostly Cloudy
4:44 AM75.2 °F73.4 °F94 %29.75 in10.0 miSSW (200°)5.8 mphMostly Cloudy
4:49 AM77.0 °F75.2 °F94 %29.75 in10.0 miSouth (190°)5.8 mphScattered Clouds
4:58 AM76.5 °F75.7 °F98 %29.73 in10.0 miSSW (200°)3.5 mph0.00 inScattered Clouds
5:08 AM71.6 °F71.6 °F100 %29.76 in10.0 miWSW (240°)4.6 mphMostly Cloudy
5:13 AM71.6 °F69.8 °F94 %29.76 in10.0 miWSW (240°)4.6 mphScattered Clouds
5:58 AM72.9 °F72.7 °F99 %29.74 in10.0 miSSW (210°)4.6 mphClear
6:58 AM76.6 °F75.4 °F96 %29.75 in10.0 miWSW (240°)8.1 mphPartly Cloudy
7:58 AM77.2 °F76.3 °F97 %29.77 in10.0 miSSW (210°)5.8 mphClear
8:58 AM79.2 °F77.5 °F95 %29.78 in10.0 miSouth (190°)3.5 mphClear
9:46 AM77.0 °F75.2 °F94 %29.80 in10.0 miSW (220°)4.6 mphRainLight Rain
9:58 AM77.0 °F74.7 °F92 %29.78 in10.0 miNorth (350°)1.2 mph0.00 inRainLight Rain
10:00 AM77.0 °F75.2 °F94 %29.81 in10.0 miVariable2.3 mphClear
10:50 AM77.0 °F71.6 °F83 %29.80 in10.0 miWest (260°)6.9 mphMostly Cloudy
10:55 AM80.6 °F75.2 °F84 %29.79 in10.0 miWest (260°)6.9 mphScattered Clouds
10:58 AM79.9 °F75.4 °F86 %29.76 in10.0 miWest (260°)6.9 mph0.00 inScattered Clouds
11:07 AM77.0 °F75.2 °F94 %29.80 in10.0 miSW (220°)13.8 mphRainLight Rain
11:12 AM77.0 °F75.2 °F94 %29.80 in10.0 miWSW (240°)13.8 mphRainLight Rain
11:17 AM77.0 °F73.4 °F89 %29.80 in10.0 miWSW (240°)12.7 mphRainRain
11:34 AM75.2 °F73.4 °F94 %29.78 in10.0 miWSW (240°)10.4 mphPartly Cloudy
11:39 AM75.2 °F73.4 °F94 %29.78 in10.0 miWSW (250°)6.9 mphRainLight Rain
11:51 AM71.6 °F69.8 °F94 %29.78 in10.0 miWNW (290°)8.1 mphPartly Cloudy
11:54 AM71.6 °F69.8 °F94 %29.78 in10.0 miWNW (290°)6.9 mphLight Drizzle
11:58 AM71.1 °F69.4 °F95 %29.75 in10.0 miNW (320°)6.9 mph0.05 inLight Drizzle
12:04 PM73.4 °F73.4 °F100 %29.78 in10.0 miNorth (350°)8.1 mphScattered Clouds
12:23 PM71.6 °F71.6 °F100 %29.78 in10.0 miNW (310°)8.1 mphRainLight Rain
12:28 PM73.4 °F73.4 °F100 %29.78 in7.0 miWest (260°)15.0 mphRainLight Rain
12:33 PM73.4 °F71.6 °F94 %29.77 in3.0 miWest (260°)11.5 mphRainLight Rain
12:38 PM73.4 °F71.6 °F94 %29.77 in3.0 miWNW (290°)11.5 mphRainLight Rain
12:58 PM72.3 °F71.1 °F96 %29.74 in8.0 miWest (260°)9.2 mph0.03 inRainLight Rain
1:28 PM69.8 °F68.0 °F94 %29.76 in10.0 miWNW (300°)5.8 mphRainLight Rain
1:33 PM69.8 °F69.8 °F100 %29.76 in10.0 miWest (260°)2.3 mphRainLight Rain
1:58 PM70.9 °F69.4 °F95 %29.73 in10.0 miSSE (160°)5.8 mph0.02 inLight Drizzle
2:10 PM75.2 °F73.4 °F94 %29.76 in10.0 miSouth (180°)3.5 mphClear
2:58 PM73.9 °F72.3 °F95 %29.71 in10.0 miWest (270°)8.1 mph0.00 inPartly Cloudy
3:14 PM75.2 °F73.4 °F94 %29.74 in10.0 miWSW (250°)5.8 mphLight Drizzle
3:24 PM77.0 °F75.2 °F94 %29.74 in10.0 miWest (260°)5.8 mphClear
3:28 PM77.0 °F75.2 °F94 %29.74 in10.0 miWSW (250°)5.8 mphLight Drizzle
3:58 PM76.5 °F75.2 °F96 %29.71 in10.0 miSW (230°)4.6 mph0.00 inRainLight Rain
4:22 PM77.0 °F75.2 °F94 %29.75 in10.0 miWest (260°)8.1 mphClear
4:58 PM77.4 °F76.8 °F98 %29.72 in10.0 miWNW (290°)6.9 mph0.00 inScattered Clouds
5:49 PM77.0 °F77.0 °F100 %29.75 in10.0 miWNW (290°)8.1 mphLight Drizzle
5:58 PM77.0 °F76.6 °F99 %29.72 in10.0 miWest (280°)9.2 mph0.00 inRainLight Rain
6:19 PM77.0 °F77.0 °F100 %29.76 in10.0 miWNW (290°)8.1 mphScattered Clouds
6:58 PM76.6 °F75.7 °F97 %29.75 in10.0 miNW (310°)5.8 mph0.00 inMostly Cloudy
7:58 PM76.8 °F76.3 °F98 %29.76 in10.0 miNW (320°)6.9 mphScattered Clouds
8:58 PM76.6 °F76.5 °F99 %29.77 in10.0 miNNW (330°)6.9 mphPartly Cloudy
9:58 PM76.6 °F76.5 °F99 %29.78 in10.0 miWNW (290°)2.3 mphMostly Cloudy
10:58 PM76.5 °F76.3 °F99 %29.78 in10.0 miWest (280°)3.5 mph0.01 inPartly Cloudy
11:58 PM76.1 °F76.1 °F100 %29.77 in10.0 miNW (310°)5.8 mphClear
Hourly data recorded from PGUA, located miles away from Mangilao, Guam







STORIES FROM OUR PARTNERS